Regional Weather Roundup
Issued by NWS Cleveland, OH

Home | Current Version | Previous Version | Text Only | Print | Product List | Glossary Off
Versions: 1 2 3 4 5 6 7 8 9 10 11 12 13 14 15 16 17 18 19 20 21 22 23 24 25 26 27 28 29 30 31 32 33 34 35 36 37 38 39 40 41 42 43 44 45 46 47 48 49 50

000
ASUS41 KCLE 061210
RWRCLE
OHIO REGIONAL WEATHER ROUNDUP
NATIONAL WEATHER SERVICE CLEVELAND, OH
800 AM EDT MON JUL 06 2015

NOTE: "FAIR" INDICATES FEW OR NO CLOUDS BELOW 12,000 FEET WITH NO
SIGNIFICANT WEATHER AND/OR OBSTRUCTIONS TO VISIBILITY.

OHZ001>008-015>018-024>027-034-035-043-044-061300-
   NORTHWEST OHIO

CITY           SKY/WX    TMP DP  RH WIND       PRES   REMARKS
DEFIANCE       SUNNY     63  60  90 CALM      30.07F FOG
FINDLAY        SUNNY     64  61  90 CALM      30.09R FOG
TOLEDO EXPRESS SUNNY     62  57  83 CALM      30.08R
TOLEDO EXEC    SUNNY     64  60  87 CALM      30.09R FOG
LIMA           SUNNY     64  61  90 CALM      30.10R FOG
$$

OHZ009>014-019>023-028>033-038-089-061300-
   NORTHEAST OHIO

CITY           SKY/WX    TMP DP  RH WIND       PRES   REMARKS
CLE-HOPKINS    PTSUNNY   66  60  81 CALM      30.10S
CLE-LAKEFRONT  PTSUNNY   70  61  73 S5        30.07S
CUY CO. ARPT   MOSUNNY   72  64  78 SE6       30.08S
LORAIN-ELYRIA  MOSUNNY   65  62  90 CALM      30.09S FOG
ASHTABULA      PTSUNNY   67  64  90 CALM      30.10S
AKRON-CANTON   CLOUDY    69  61  75 E3        30.08F
WOOSTER        PTSUNNY   68  62  81 CALM      30.09F
MANSFIELD      SUNNY     67  62  84 CALM      30.10S
YOUNGSTOWN     CLOUDY    67  64  90 E3        30.10R FOG
$$

OHZ042-051>053-060>062-070>072-077>081-061300-
  SOUTHWEST OHIO

CITY           SKY/WX    TMP DP  RH WIND       PRES   REMARKS
CINC-COVINGTON SUNNY     64  62  93 CALM      30.11R
CINC-LUNKEN    PTSUNNY   65  65 100 CALM      30.11R FOG
HAMILTON       SUNNY     63  62  97 CALM      30.11S FOG
DAYTON         SUNNY     67  63  87 NW3       30.11S FOG
WRIGHT-PAT AFB SUNNY     64  63  96 CALM      30.10S
DAYTON GENERAL SUNNY     67  61  81 NW3       30.09S
WILMINGTON     SUNNY     68  62  81 CALM      30.10R HAZE
$$

OHZ036-037-039>041-045>050-054>059-063>069-073>076-082>088-061300-
  CENTRAL AND SOUTHEAST OHIO

CITY           SKY/WX    TMP DP  RH WIND       PRES   REMARKS
COLUMBUS       MOSUNNY   67  62  84 CALM      30.08R
OSU AIRPORT    MOSUNNY   67  62  84 N6        30.09R
BOLTON FIELD   MOSUNNY   64  63  94 W7        30.09S
RICKENBACK AFB MOSUNNY   65  62  91 NW3       30.08R
NEWARK         PTSUNNY   68  63  84 CALM      30.08R
MARION         MOSUNNY   67  61  81 CALM      30.10R HAZE
LANCASTER      MOSUNNY   68  64  87 CALM      30.08S FOG
ZANESVILLE     NOT AVBL
NEW PHILLY     CLOUDY    67  64  90 CALM      30.09S
$$


USA.gov is the U.S. government's official web portal to all federal, state and local government web resources and services.